This is the latest recevied weather packets stored in our database for station/object AA0PB. If no packets are shown the sender has not sent any weather packets the latest 10 day(s).
| Time | Temp. | Humidity | Pressure | Rain* | Wind** | Luminosity | Snow |
|---|---|---|---|---|---|---|---|
| 1777096197 | 11.67° C | 43% | 1014.6 hPa | 0 mm | - | 0 W/m² | - |
| 1777095897 | 11.67° C | 43% | 1014.4 hPa | 0 mm | - | 0 W/m² | - |
| 1777095591 | 11.67° C | 45% | 1014.7 hPa | 0 mm | - | 0 W/m² | - |
| 1777095290 | 11.67° C | 44% | 1014.6 hPa | 0 mm | - | 0 W/m² | - |
| 1777094984 | 12.22° C | 43% | 1014.6 hPa | 0 mm | - | 0 W/m² | - |
| 1777094680 | 12.22° C | 41% | 1014.6 hPa | 0 mm | - | 0 W/m² | - |
| 1777094379 | 12.78° C | 40% | 1014.5 hPa | 0 mm | - | 0 W/m² | - |
| 1777094073 | 11.67° C | 44% | 1014.7 hPa | 0 mm | - | 0 W/m² | - |
| 1777093770 | 12.22° C | 45% | 1014.6 hPa | 0 mm | - | 0 W/m² | - |
| 1777093466 | 12.22° C | 43% | 1014.5 hPa | 0 mm | - | 0 W/m² | - |
| 1777093161 | 12.22° C | 43% | 1014.2 hPa | 0 mm | - | 0 W/m² | - |
| 1777092856 | 12.78° C | 42% | 1014.5 hPa | 0 mm | - | 0 W/m² | - |
| 1777092551 | 12.78° C | 41% | 1014.3 hPa | 0 mm | - | 0 W/m² | - |
| 1777092247 | 12.78° C | 40% | 1014.3 hPa | 0 mm | - | 0 W/m² | - |
| 1777091944 | 12.78° C | 40% | 1014.6 hPa | 0 mm | - | 0 W/m² | - |
| 1777091638 | 12.78° C | 40% | 1014.5 hPa | 0 mm | - | 0 W/m² | - |
| 1777091333 | 12.78° C | 41% | 1014.6 hPa | 0 mm | - | 0 W/m² | - |
| 1777091028 | 12.78° C | 42% | 1014.4 hPa | 0 mm | - | 0 W/m² | - |
| 1777090726 | 12.78° C | 41% | 1014.5 hPa | 0 mm | - | 0 W/m² | - |
| 1777090423 | 12.78° C | 41% | 1014.6 hPa | 0 mm | - | 0 W/m² | - |
| 1777090118 | 12.78° C | 40% | 1014.5 hPa | 0 mm | - | 0 W/m² | - |
| 1777089814 | 12.78° C | 40% | 1014.5 hPa | 0 mm | - | 0 W/m² | - |
| 1777089509 | 13.33° C | 40% | 1014.4 hPa | 0 mm | - | 0 W/m² | - |
| 1777089205 | 13.33° C | 39% | 1014.5 hPa | 0 mm | - | 0 W/m² | - |
| 1777088900 | 13.89° C | 37% | 1014.5 hPa | 0 mm | - | 0 W/m² | - |
* Rain latest hour (hover to see other rain measurements)
** Current wind speed in m/s (hover to see current wind gust speed)